When you browse on this site, cookies collect data to enhance your experience and personalize the content and advertising you see.
Visit our Privacy Policy to learn more. By continuing to use the site, you agree to this use of cookies and data.
  • In Hungary
  • List of Countries
  • For 7 days
  • Water Temperature
  • Weather Map
  • News
  • Weather Widgets
  • user-avatar
    Login

    Hourly Weather Bautzen

    Today, 14 November, Thursday

    Time Temperature Precipitation Wind Pressure Humidity
    00:00 +3°C° 0 mm 2 mps 736 mmHg 88%
    01:00 +3°C° 0 mm 2 mps 736 mmHg 89%
    02:00 +2°C° 0 mm 2 mps 737 mmHg 90%
    03:00 +2°C° 0 mm 2 mps 737 mmHg 91%
    04:00 +1°C° 0 mm 2 mps 737 mmHg 91%
    05:00 +1°C° 0 mm 2 mps 737 mmHg 91%
    06:00 +1°C° 0 mm 2 mps 738 mmHg 91%
    07:00 +1°C° 0 mm 2 mps 738 mmHg 91%
    08:00 +1°C° 0 mm 3 mps 738 mmHg 87%
    09:00 +2°C° 0 mm 3 mps 739 mmHg 83%
    10:00 +4°C° 0 mm 3 mps 739 mmHg 79%
    11:00 +4°C° 0 mm 3 mps 739 mmHg 75%
    12:00 +5°C° 0 mm 3 mps 739 mmHg 71%
    13:00 +7°C° 0 mm 3 mps 739 mmHg 67%
    14:00 +5°C° 0 mm 3 mps 739 mmHg 71%
    15:00 +5°C° 0 mm 3 mps 739 mmHg 76%
    16:00 +4°C° 0 mm 3 mps 739 mmHg 80%
    17:00 +3°C° 0 mm 3 mps 738 mmHg 83%
    18:00 +3°C° 0 mm 3 mps 738 mmHg 85%
    19:00 +2°C° 0 mm 3 mps 738 mmHg 87%
    20:00 +2°C° 0 mm 3 mps 738 mmHg 87%
    21:00 +1°C° 0 mm 4 mps 738 mmHg 86%
    22:00 +1°C° 0 mm 4 mps 737 mmHg 85%
    23:00 +3°C° 0 mm 4 mps 737 mmHg 86%

    Tomorrow, 15 November, Friday

    Time Temperature Precipitation Wind Pressure Humidity
    00:00 +3°C° 0 mm 4 mps 737 mmHg 88%
    01:00 +3°C° 0 mm 4 mps 736 mmHg 90%
    02:00 +2°C° 0 mm 5 mps 736 mmHg 90%
    03:00 +2°C° 0 mm 5 mps 735 mmHg 90%
    04:00 +2°C° 0 mm 5 mps 735 mmHg 90%
    05:00 +3°C° 0 mm 5 mps 735 mmHg 90%
    06:00 +3°C° 0 mm 5 mps 735 mmHg 89%
    07:00 +3°C° 0 mm 5 mps 735 mmHg 89%
    08:00 +6°C° 0 mm 5 mps 735 mmHg 85%
    09:00 +7°C° 0 mm 6 mps 735 mmHg 81%
    10:00 +9°C° 0 mm 6 mps 735 mmHg 77%
    11:00 +9°C° 0 mm 6 mps 735 mmHg 74%
    12:00 +10°C° 0 mm 6 mps 735 mmHg 71%
    13:00 +11°C° 0 mm 6 mps 734 mmHg 68%
    14:00 +11°C° 0 mm 6 mps 734 mmHg 72%
    15:00 +10°C° 0 mm 5 mps 734 mmHg 75%
    16:00 +10°C° 0 mm 4 mps 734 mmHg 79%
    17:00 +10°C° 0 mm 4 mps 734 mmHg 80%
    18:00 +10°C° 0 mm 4 mps 734 mmHg 81%
    19:00 +8°C° 0 mm 4 mps 734 mmHg 83%
    20:00 +8°C° 0 mm 4 mps 734 mmHg 84%
    21:00 +8°C° 0 mm 4 mps 734 mmHg 84%
    22:00 +8°C° 0 mm 4 mps 734 mmHg 85%
    23:00 +9°C° 0 mm 3 mps 734 mmHg 86%

    Day after tomorrow, 16 November, Saturday

    Time Temperature Precipitation Wind Pressure Humidity
    00:00 +9°C° 0 mm 3 mps 734 mmHg 86%
    01:00 +9°C° 0 mm 2 mps 734 mmHg 86%
    02:00 +9°C° 0 mm 2 mps 734 mmHg 85%
    03:00 +9°C° 0 mm 3 mps 734 mmHg 85%
    04:00 +10°C° 0 mm 3 mps 734 mmHg 84%
    05:00 +8°C° 0 mm 3 mps 735 mmHg 85%
    06:00 +7°C° 0 mm 3 mps 736 mmHg 85%
    07:00 +5°C° 0 mm 3 mps 736 mmHg 86%
    08:00 +5°C° 0 mm 4 mps 737 mmHg 81%
    09:00 +6°C° 0 mm 5 mps 738 mmHg 75%
    10:00 +6°C° 0 mm 5 mps 738 mmHg 70%
    11:00 +7°C° 0 mm 5 mps 739 mmHg 67%
    12:00 +8°C° 0 mm 5 mps 739 mmHg 64%
    13:00 +8°C° 0 mm 4 mps 740 mmHg 61%
    14:00 +8°C° 0 mm 4 mps 740 mmHg 65%
    15:00 +8°C° 0 mm 3 mps 740 mmHg 69%
    16:00 +7°C° 0 mm 2 mps 740 mmHg 73%
    17:00 +6°C° 0 mm 2 mps 741 mmHg 76%
    18:00 +6°C° 0 mm 2 mps 741 mmHg 79%
    19:00 +5°C° 0 mm 2 mps 742 mmHg 82%
    20:00 +5°C° 0 mm 2 mps 742 mmHg 82%
    21:00 +5°C° 0 mm 2 mps 743 mmHg 83%
    22:00 +5°C° 0 mm 2 mps 743 mmHg 83%
    23:00 +5°C° 0 mm 2 mps 743 mmHg 83%

    17 November, Sunday

    Time Temperature Precipitation Wind Pressure Humidity
    00:00 +5°C° 0 mm 2 mps 743 mmHg 82%
    01:00 +5°C° 0 mm 2 mps 743 mmHg 82%
    02:00 +5°C° 0 mm 1 mps 743 mmHg 83%
    03:00 +5°C° 0 mm 1 mps 743 mmHg 84%
    04:00 +5°C° 0 mm 1 mps 743 mmHg 85%
    05:00 +5°C° 0 mm 1 mps 743 mmHg 85%
    06:00 +5°C° 0 mm 1 mps 743 mmHg 85%
    07:00 +5°C° 0 mm 1 mps 743 mmHg 85%
    08:00 +5°C° 0 mm 1 mps 743 mmHg 83%
    09:00 +5°C° 0 mm 2 mps 743 mmHg 81%
    10:00 +5°C° 0 mm 3 mps 743 mmHg 79%
    11:00 +7°C° 0 mm 3 mps 742 mmHg 78%
    12:00 +8°C° 0 mm 3 mps 742 mmHg 78%
    13:00 +8°C° 0 mm 4 mps 742 mmHg 77%
    14:00 +8°C° 0 mm 4 mps 741 mmHg 80%
    15:00 +7°C° 0 mm 4 mps 741 mmHg 84%
    16:00 +7°C° 0 mm 4 mps 740 mmHg 87%
    17:00 +7°C° 0 mm 4 mps 740 mmHg 89%
    18:00 +7°C° 0 mm 4 mps 739 mmHg 91%
    19:00 +6°C° 0 mm 4 mps 739 mmHg 93%
    20:00 +7°C° 0 mm 4 mps 739 mmHg 90%
    21:00 +7°C° 0 mm 4 mps 738 mmHg 88%
    22:00 +8°C° 0 mm 4 mps 738 mmHg 85%
    23:00 +8°C° 0 mm 4 mps 738 mmHg 84%

    18 November, Monday

    Time Temperature Precipitation Wind Pressure Humidity
    00:00 +8°C° 0 mm 4 mps 737 mmHg 83%
    01:00 +8°C° 0 mm 4 mps 737 mmHg 82%
    02:00 +8°C° 0 mm 4 mps 736 mmHg 81%
    03:00 +8°C° 0 mm 4 mps 736 mmHg 80%
    04:00 +9°C° 0 mm 3 mps 735 mmHg 79%
    05:00 +9°C° 0 mm 3 mps 735 mmHg 79%
    06:00 +9°C° 0 mm 3 mps 735 mmHg 80%
    07:00 +9°C° 0 mm 3 mps 735 mmHg 80%
    08:00 +10°C° 0 mm 4 mps 734 mmHg 78%
    09:00 +10°C° 0 mm 4 mps 734 mmHg 76%
    10:00 +11°C° 0 mm 4 mps 734 mmHg 74%
    11:00 +10°C° 0 mm 5 mps 734 mmHg 73%
    12:00 +12°C° 0 mm 5 mps 734 mmHg 73%
    13:00 +12°C° 0 mm 5 mps 734 mmHg 73%
    14:00 +10°C° 0.5 mm 6 mps 734 mmHg 75%
    15:00 +8°C° 0.5 mm 6 mps 735 mmHg 77%
    16:00 +7°C° 0.5 mm 6 mps 735 mmHg 79%
    17:00 +5°C° 0 mm 6 mps 736 mmHg 78%
    18:00 +5°C° 0 mm 5 mps 737 mmHg 77%
    19:00 +5°C° 0 mm 5 mps 737 mmHg 76%
    20:00 +3°C° 0 mm 5 mps 738 mmHg 77%
    21:00 +4°C° 0 mm 4 mps 738 mmHg 78%
    22:00 +4°C° 0 mm 4 mps 739 mmHg 79%
    23:00 +4°C° 0 mm 4 mps 739 mmHg 79%

    19 November, Tuesday

    Time Temperature Precipitation Wind Pressure Humidity
    00:00 +2°C° 0 mm 5 mps 739 mmHg 79%
    01:00 +2°C° 0 mm 5 mps 740 mmHg 78%
    02:00 +2°C° 0 mm 5 mps 740 mmHg 78%
    03:00 +2°C° 0 mm 5 mps 740 mmHg 78%
    04:00 +2°C° 0 mm 5 mps 740 mmHg 78%
    05:00 +2°C° 0 mm 5 mps 741 mmHg 78%
    06:00 +2°C° 0 mm 5 mps 741 mmHg 78%
    07:00 +2°C° 0 mm 5 mps 741 mmHg 78%
    08:00 +2°C° 0 mm 5 mps 742 mmHg 77%
    09:00 +3°C° 0 mm 5 mps 742 mmHg 75%
    10:00 +5°C° 0 mm 5 mps 743 mmHg 74%
    11:00 +5°C° 0 mm 5 mps 743 mmHg 72%
    12:00 +6°C° 0 mm 4 mps 743 mmHg 70%
    13:00 +7°C° 0 mm 4 mps 743 mmHg 69%
    14:00 +7°C° 0 mm 3 mps 743 mmHg 72%
    15:00 +5°C° 0 mm 3 mps 743 mmHg 76%
    16:00 +5°C° 0 mm 2 mps 743 mmHg 80%
    17:00 +5°C° 0 mm 2 mps 743 mmHg 82%
    18:00 +4°C° 0 mm 2 mps 743 mmHg 83%
    19:00 +3°C° 0 mm 2 mps 743 mmHg 85%
    20:00 +3°C° 0 mm 2 mps 743 mmHg 85%
    21:00 +3°C° 0 mm 2 mps 743 mmHg 86%
    22:00 +3°C° 0 mm 2 mps 744 mmHg 86%
    23:00 +3°C° 0 mm 2 mps 743 mmHg 87%
    Show more